,,,PA_Meas_PMT16A,,PR_Meas_QMR101_102,,RH_Meas_QMH101,,SR_Meas_QMS101,,TA_Meas_QMH101,,GenWind,,GenWind,
date,time,status,PA,status,PR,status,RH,status,SR,status,TA,status,DirAvg,status,SpdAvg,
2014-11-16, 00:00:04,VALID,1009.94,VALID,0,INVALID,140.672,VALID,0.112112,VALID,24.1988,VALID,343,VALID,0.315234,
2014-11-16, 00:01:04,VALID,1009.92,VALID,0,INVALID,140.672,VALID,0,VALID,24.2007,VALID,343,VALID,0.270703,
2014-11-16, 00:02:04,VALID,1009.92,VALID,0,INVALID,140.619,VALID,0,VALID,24.1812,VALID,343,VALID,0.0292969,
2014-11-16, 00:03:04,VALID,1009.89,VALID,0,INVALID,140.558,VALID,0,VALID,24.1812,VALID,343,VALID,0.053125,
2014-11-16, 00:04:04,VALID,1009.87,VALID,0,INVALID,140.482,VALID,0,VALID,24.1617,VALID,343,VALID,0,
2014-11-16, 00:05:04,VALID,1009.87,VALID,0,INVALID,140.428,VALID,0,VALID,24.1209,VALID,343,VALID,0.191797,
2014-11-16, 00:06:04,VALID,1009.83,VALID,0,INVALID,140.436,VALID,0,VALID,24.1422,VALID,343,VALID,0.155078,
2014-11-16, 00:07:04,VALID,1009.84,VALID,0,INVALID,140.382,VALID,0.112112,VALID,24.1014,VALID,343,VALID,0.0328125,
2014-11-16, 00:08:04,VALID,1009.83,VALID,0,INVALID,140.337,VALID,0,VALID,24.0819,VALID,343,VALID,0.021875,
2014-11-16, 00:09:04,VALID,1009.8,VALID,0,INVALID,140.36,VALID,0.112112,VALID,24.0624,VALID,343,VALID,0.241016,
2014-11-16, 00:10:04,VALID,1009.77,VALID,0,INVALID,140.138,VALID,0,VALID,24.0819,VALID,343,VALID,0.585156,
2014-11-16, 00:11:04,VALID,1009.78,VALID,0,INVALID,139.803,VALID,0,VALID,24.1617,VALID,343,VALID,0.639453,
2014-11-16, 00:12:04,VALID,1009.79,VALID,0,INVALID,139.643,VALID,0,VALID,24.1404,VALID,343,VALID,0.766406,
2014-11-16, 00:13:04,VALID,1009.78,VALID,0,INVALID,139.498,VALID,0,VALID,24.1617,VALID,343,VALID,0.761719,
2014-11-16, 00:14:04,VALID,1009.75,VALID,0,INVALID,139.353,VALID,0.112112,VALID,24.1617,VALID,352,VALID,0.708594,
2014-11-16, 00:15:04,VALID,1009.75,VALID,0,INVALID,139.3,VALID,0.112112,VALID,24.1404,VALID,352,VALID,0.566016,
2014-11-16, 00:16:04,VALID,1009.75,VALID,0,INVALID,139.3,VALID,0,VALID,24.1617,VALID,352,VALID,0.800391,
2014-11-16, 00:17:04,VALID,1009.72,VALID,0,INVALID,139.315,VALID,0,VALID,24.1404,VALID,352,VALID,1.00977,
2014-11-16, 00:18:04,VALID,1009.71,VALID,0,INVALID,139.239,VALID,0,VALID,24.1404,VALID,352,VALID,0.861328,
2014-11-16, 00:19:04,VALID,1009.72,VALID,0,INVALID,139.178,VALID,0,VALID,24.1404,VALID,352,VALID,0.847266,
2014-11-16, 00:20:04,VALID,1009.69,VALID,0,INVALID,139.117,VALID,0,VALID,24.1209,VALID,352,VALID,0.735547,
2014-11-16, 00:21:04,VALID,1009.7,VALID,0,INVALID,139.078,VALID,0,VALID,24.1422,VALID,352,VALID,0.615234,
2014-11-16, 00:22:04,VALID,1009.69,VALID,0,INVALID,139.056,VALID,0,VALID,24.1209,VALID,352,VALID,0.885547,
2014-11-16, 00:23:04,VALID,1009.69,VALID,0,INVALID,139.04,VALID,0.112112,VALID,24.1014,VALID,352,VALID,0.757031,
2014-11-16, 00:24:04,VALID,1009.69,VALID,0,INVALID,138.987,VALID,0,VALID,24.1032,VALID,352,VALID,0.343359,
2014-11-16, 00:25:04,VALID,1009.67,VALID,0,INVALID,138.972,VALID,0,VALID,24.1014,VALID,352,VALID,0.782812,
2014-11-16, 00:26:04,VALID,1009.69,VALID,0,INVALID,138.918,VALID,0,VALID,24.1032,VALID,352,VALID,0.223047,
2014-11-16, 00:27:04,VALID,1009.67,VALID,0,INVALID,138.88,VALID,0,VALID,24.1227,VALID,352,VALID,0.442578,
2014-11-16, 00:28:04,VALID,1009.68,VALID,0,INVALID,138.804,VALID,0.112112,VALID,24.1209,VALID,352,VALID,0.944141,
2014-11-16, 00:29:04,VALID,1009.64,VALID,0,INVALID,138.789,VALID,0.112112,VALID,24.1014,VALID,352,VALID,0.708594,
2014-11-16, 00:30:04,VALID,1009.65,VALID,0,INVALID,138.735,VALID,0,VALID,24.1014,VALID,352,VALID,0.387891,
2014-11-16, 00:31:04,VALID,1009.62,VALID,0,INVALID,138.773,VALID,0,VALID,24.1227,VALID,352,VALID,0.539453,
2014-11-16, 00:32:04,VALID,1009.59,VALID,0,INVALID,138.865,VALID,0.112112,VALID,24.1014,VALID,11,VALID,0.896875,
2014-11-16, 00:33:04,VALID,1009.59,VALID,0,INVALID,138.918,VALID,0,VALID,24.1032,VALID,11,VALID,0.434375,
2014-11-16, 00:34:04,VALID,1009.57,VALID,0,INVALID,138.979,VALID,0,VALID,24.1032,VALID,11,VALID,0.868359,
2014-11-16, 00:35:04,VALID,1009.55,VALID,0,INVALID,139.071,VALID,0,VALID,24.0837,VALID,11,VALID,0.770312,
2014-11-16, 00:36:04,VALID,1009.56,VALID,0,INVALID,139.078,VALID,0,VALID,24.0837,VALID,11,VALID,0.757422,
2014-11-16, 00:37:04,VALID,1009.54,VALID,0,INVALID,139.185,VALID,0,VALID,24.0624,VALID,11,VALID,0.563281,
2014-11-16, 00:38:04,VALID,1009.55,VALID,0,INVALID,139.292,VALID,0,VALID,24.0429,VALID,11,VALID,0.771875,
2014-11-16, 00:39:04,VALID,1009.54,VALID,0,INVALID,139.361,VALID,0,VALID,24.0643,VALID,11,VALID,0.562109,
2014-11-16, 00:40:04,VALID,1009.53,VALID,0,INVALID,139.422,VALID,0,VALID,24.0429,VALID,11,VALID,0.641797,
2014-11-16, 00:41:04,VALID,1009.57,VALID,0,INVALID,139.445,VALID,0,VALID,24.0643,VALID,11,VALID,0.528125,
2014-11-16, 00:42:04,VALID,1009.55,VALID,0,INVALID,139.536,VALID,0,VALID,24.0429,VALID,11,VALID,1.01914,
2014-11-16, 00:43:04,VALID,1009.58,VALID,0,INVALID,139.582,VALID,0,VALID,24.0235,VALID,11,VALID,0.807813,
2014-11-16, 00:44:04,VALID,1009.59,VALID,0,INVALID,139.605,VALID,0,VALID,24.0448,VALID,11,VALID,0.482812,
2014-11-16, 00:45:04,VALID,1009.58,VALID,0,INVALID,139.673,VALID,0,VALID,24.0253,VALID,11,VALID,0.9875,
2014-11-16, 00:46:04,VALID,1009.57,VALID,0,INVALID,139.658,VALID,0,VALID,24.004,VALID,11,VALID,0.498047,
2014-11-16, 00:47:05,VALID,1009.59,VALID,0,INVALID,139.673,VALID,0.112112,VALID,23.9863,VALID,11,VALID,0.512891,
2014-11-16, 00:48:05,VALID,1009.59,VALID,0,INVALID,139.666,VALID,0,VALID,23.9863,VALID,11,VALID,0.845703,
2014-11-16, 00:49:05,VALID,1009.58,VALID,0,INVALID,139.62,VALID,0,VALID,23.9863,VALID,11,VALID,0.687109,
2014-11-16, 00:50:05,VALID,1009.57,VALID,0,INVALID,139.605,VALID,0,VALID,23.9668,VALID,11,VALID,0.276953,
2014-11-16, 00:51:05,VALID,1009.56,VALID,0,INVALID,139.582,VALID,0,VALID,23.9473,VALID,11,VALID,0.216797,
2014-11-16, 00:52:05,VALID,1009.56,VALID,0,INVALID,139.521,VALID,0,VALID,23.9278,VALID,11,VALID,0.584766,
2014-11-16, 00:53:05,VALID,1009.55,VALID,0,INVALID,139.49,VALID,0,VALID,23.9278,VALID,11,VALID,0.486328,
2014-11-16, 00:54:05,VALID,1009.56,VALID,0,INVALID,139.384,VALID,0,VALID,23.9278,VALID,11,VALID,0.7125,
2014-11-16, 00:55:05,VALID,1009.53,VALID,0,INVALID,139.269,VALID,0,VALID,23.9278,VALID,11,VALID,0.394922,
2014-11-16, 00:56:05,VALID,1009.54,VALID,0,INVALID,139.239,VALID,0,VALID,23.9084,VALID,11,VALID,0.334375,
2014-11-16, 00:57:05,VALID,1009.52,VALID,0,INVALID,139.17,VALID,0,VALID,23.8871,VALID,11,VALID,0.629297,
2014-11-16, 00:58:05,VALID,1009.52,VALID,0,INVALID,139.04,VALID,0,VALID,23.9084,VALID,11,VALID,1.19609,
2014-11-16, 00:59:05,VALID,1009.5,VALID,0,INVALID,138.873,VALID,0,VALID,23.9084,VALID,11,VALID,0.544531,
2014-11-16, 01:00:05,VALID,1009.5,VALID,0,INVALID,138.804,VALID,0,VALID,23.9084,VALID,11,VALID,0.804688,
2014-11-16, 01:01:05,VALID,1009.46,VALID,0,INVALID,138.667,VALID,0.112112,VALID,23.9084,VALID,11,VALID,0.822656,
2014-11-16, 01:02:05,VALID,1009.44,VALID,0,INVALID,138.59,VALID,0,VALID,23.8889,VALID,13,VALID,0.941797,
2014-11-16, 01:03:05,VALID,1009.48,VALID,0,INVALID,138.407,VALID,0,VALID,23.8889,VALID,18,VALID,0.641797,
2014-11-16, 01:04:05,VALID,1009.47,VALID,0,INVALID,138.369,VALID,0,VALID,23.8889,VALID,18,VALID,0.854297,
2014-11-16, 01:05:05,VALID,1009.47,VALID,0,INVALID,138.232,VALID,0,VALID,23.8889,VALID,18,VALID,0.48125,
2014-11-16, 01:06:05,VALID,1009.47,VALID,0,INVALID,138.118,VALID,0,VALID,23.8676,VALID,18,VALID,0.494141,
2014-11-16, 01:07:05,VALID,1009.47,VALID,0,INVALID,138.057,VALID,0,VALID,23.8694,VALID,18,VALID,0.5125,
2014-11-16, 01:08:05,VALID,1009.45,VALID,0,INVALID,137.927,VALID,0,VALID,23.8889,VALID,18,VALID,0.910937,
2014-11-16, 01:09:05,VALID,1009.44,VALID,0,INVALID,137.767,VALID,0,VALID,23.8694,VALID,21,VALID,0.967578,
2014-11-16, 01:10:05,VALID,1009.44,VALID,0,INVALID,137.607,VALID,0,VALID,23.8889,VALID,22,VALID,1.08633,
2014-11-16, 01:11:05,VALID,1009.4,VALID,0,INVALID,137.637,VALID,0,VALID,23.8889,VALID,82,VALID,0.972266,
2014-11-16, 01:12:05,VALID,1009.37,VALID,0,INVALID,137.454,VALID,0,VALID,23.8889,VALID,82,VALID,0.719141,
2014-11-16, 01:13:05,VALID,1009.39,VALID,0,INVALID,137.286,VALID,0,VALID,23.8889,VALID,82,VALID,1.05352,
2014-11-16, 01:14:05,VALID,1009.39,VALID,0,INVALID,137.088,VALID,0,VALID,23.8889,VALID,82,VALID,1.10547,
2014-11-16, 01:15:05,VALID,1009.34,VALID,0,INVALID,136.943,VALID,0,VALID,23.8694,VALID,82,VALID,0.4125,
2014-11-16, 01:16:05,VALID,1009.33,VALID,0,INVALID,136.783,VALID,0,VALID,23.8694,VALID,82,VALID,0.392578,
2014-11-16, 01:17:05,VALID,1009.31,VALID,0,INVALID,136.669,VALID,0,VALID,23.8694,VALID,82,VALID,0.666406,
2014-11-16, 01:18:05,VALID,1009.29,VALID,0,INVALID,136.554,VALID,0,VALID,23.8499,VALID,82,VALID,0.382031,
2014-11-16, 01:19:05,VALID,1009.28,VALID,0,INVALID,136.478,VALID,0,VALID,23.8499,VALID,82,VALID,0.951172,
2014-11-16, 01:20:05,VALID,1009.28,VALID,0,INVALID,136.394,VALID,0,VALID,23.8304,VALID,82,VALID,0.619922,
2014-11-16, 01:21:05,VALID,1009.26,VALID,0,INVALID,136.341,VALID,0,VALID,23.8304,VALID,82,VALID,0.601172,
2014-11-16, 01:22:05,VALID,1009.26,VALID,0,INVALID,136.219,VALID,0,VALID,23.8109,VALID,82,VALID,0.436719,
2014-11-16, 01:23:05,VALID,1009.23,VALID,0,INVALID,136.249,VALID,0,VALID,23.8109,VALID,82,VALID,0.717188,
2014-11-16, 01:24:05,VALID,1009.21,VALID,0,INVALID,136.211,VALID,0,VALID,23.7701,VALID,82,VALID,1.35391,
2014-11-16, 01:25:05,VALID,1009.22,VALID,0,INVALID,136.104,VALID,0,VALID,23.7914,VALID,82,VALID,0.866016,
2014-11-16, 01:26:05,VALID,1009.22,VALID,0,INVALID,135.975,VALID,0,VALID,23.772,VALID,82,VALID,0.898047,
2014-11-16, 01:27:05,VALID,1009.2,VALID,0,INVALID,135.822,VALID,0,VALID,23.772,VALID,82,VALID,1.06836,
2014-11-16, 01:28:05,VALID,1009.17,VALID,0,INVALID,135.716,VALID,0,VALID,23.772,VALID,82,VALID,1.49063,
2014-11-16, 01:29:05,VALID,1009.16,VALID,0,INVALID,135.54,VALID,0,VALID,23.7525,VALID,82,VALID,0.819141,
2014-11-16, 01:30:05,VALID,1009.15,VALID,0,INVALID,135.38,VALID,0,VALID,23.7525,VALID,82,VALID,0.820703,
2014-11-16, 01:31:05,VALID,1009.13,VALID,0,INVALID,135.258,VALID,0,VALID,23.7135,VALID,82,VALID,0.892187,
2014-11-16, 01:32:05,VALID,1009.13,VALID,0,INVALID,135.113,VALID,0,VALID,23.7135,VALID,82,VALID,0.906641,
2014-11-16, 01:33:05,VALID,1009.13,VALID,0,INVALID,134.968,VALID,0,VALID,23.694,VALID,82,VALID,1.17461,
2014-11-16, 01:34:05,VALID,1009.1,VALID,0,INVALID,134.831,VALID,0,VALID,23.6745,VALID,82,VALID,0.573438,
2014-11-16, 01:35:05,VALID,1009.1,VALID,0,INVALID,134.732,VALID,0,VALID,23.6745,VALID,82,VALID,0.937109,
2014-11-16, 01:36:05,VALID,1009.05,VALID,0,INVALID,134.549,VALID,0,VALID,23.6532,VALID,82,VALID,0.765625,
2014-11-16, 01:37:05,VALID,1009.06,VALID,0,INVALID,134.366,VALID,0,VALID,23.655,VALID,82,VALID,0.721875,
2014-11-16, 01:38:05,VALID,1009.05,VALID,0,INVALID,134.229,VALID,0,VALID,23.655,VALID,82,VALID,1.04297,
2014-11-16, 01:39:05,VALID,1009.06,VALID,0,INVALID,134.107,VALID,0,VALID,23.6356,VALID,82,VALID,0.999219,
2014-11-16, 01:40:05,VALID,1009.04,VALID,0,INVALID,133.908,VALID,0,VALID,23.6161,VALID,82,VALID,0.722266,
2014-11-16, 01:41:05,VALID,1009.02,VALID,0,INVALID,133.756,VALID,0,VALID,23.6356,VALID,82,VALID,1.07148,
2014-11-16, 01:42:05,VALID,1009.01,VALID,0,INVALID,133.603,VALID,0,VALID,23.6161,VALID,82,VALID,0.819531,
2014-11-16, 01:43:05,VALID,1008.97,VALID,0,INVALID,133.39,VALID,0,VALID,23.6161,VALID,82,VALID,0.669922,
2014-11-16, 01:44:05,VALID,1008.97,VALID,0,INVALID,133.23,VALID,0,VALID,23.6161,VALID,82,VALID,0.419531,
2014-11-16, 01:45:05,VALID,1008.93,VALID,0,INVALID,133.039,VALID,0.112112,VALID,23.6356,VALID,82,VALID,0.657031,
2014-11-16, 01:46:05,VALID,1008.88,VALID,0,INVALID,132.925,VALID,0,VALID,23.6161,VALID,82,VALID,0.765625,
2014-11-16, 01:47:05,VALID,1008.88,VALID,0,INVALID,132.749,VALID,0,VALID,23.6373,VALID,82,VALID,0.789453,
2014-11-16, 01:48:05,VALID,1008.86,VALID,0,INVALID,132.597,VALID,0,VALID,23.6373,VALID,82,VALID,0.325,
2014-11-16, 01:49:05,VALID,1008.84,VALID,0,INVALID,132.528,VALID,0,VALID,23.6568,VALID,82,VALID,1.15039,
2014-11-16, 01:50:05,VALID,1008.84,VALID,0,INVALID,132.414,VALID,0,VALID,23.6161,VALID,82,VALID,0.709375,
2014-11-16, 01:51:05,VALID,1008.82,VALID,0,INVALID,132.261,VALID,0,VALID,23.6161,VALID,82,VALID,0.448047,
2014-11-16, 01:52:05,VALID,1008.79,VALID,0,INVALID,132.17,VALID,0,VALID,23.6356,VALID,82,VALID,0.583594,
2014-11-16, 01:53:05,VALID,1008.76,VALID,0,INVALID,131.979,VALID,0,VALID,23.6356,VALID,82,VALID,0.698438,
2014-11-16, 01:54:05,VALID,1008.72,VALID,0,INVALID,131.865,VALID,0,VALID,23.6356,VALID,82,VALID,0.746484,
2014-11-16, 01:55:05,VALID,1008.73,VALID,0,INVALID,131.727,VALID,0,VALID,23.6356,VALID,82,VALID,0.363672,
2014-11-16, 01:56:05,VALID,1008.68,VALID,0,INVALID,131.674,VALID,0,VALID,23.6356,VALID,82,VALID,1.11094,
2014-11-16, 01:57:05,VALID,1008.68,VALID,0,INVALID,131.605,VALID,0,VALID,23.6568,VALID,100,VALID,0.798047,
2014-11-16, 01:58:05,VALID,1008.64,VALID,0,INVALID,131.468,VALID,0,VALID,23.6356,VALID,100,VALID,0.722656,
2014-11-16, 01:59:05,VALID,1008.63,VALID,0,INVALID,131.521,VALID,0,VALID,23.6161,VALID,100,VALID,0.896094,
2014-11-16, 02:00:05,VALID,1008.59,VALID,0,INVALID,131.445,VALID,0,VALID,23.6161,VALID,100,VALID,0.996094,
2014-11-16, 02:01:05,VALID,1008.57,VALID,0,INVALID,131.376,VALID,0,VALID,23.6161,VALID,100,VALID,0.469141,
2014-11-16, 02:02:05,VALID,1008.56,VALID,0,INVALID,131.262,VALID,0,VALID,23.6161,VALID,100,VALID,0.286328,
2014-11-16, 02:03:05,VALID,1008.54,VALID,0,INVALID,131.171,VALID,0,VALID,23.5966,VALID,100,VALID,0.699219,
2014-11-16, 02:04:05,VALID,1008.52,VALID,0,INVALID,131.171,VALID,0,VALID,23.5966,VALID,100,VALID,0.496484,
2014-11-16, 02:05:05,VALID,1008.49,VALID,0,INVALID,131.079,VALID,0,VALID,23.5966,VALID,100,VALID,0.419531,
2014-11-16, 02:06:05,VALID,1008.48,VALID,0,INVALID,131.033,VALID,0,VALID,23.5966,VALID,100,VALID,0.808203,
2014-11-16, 02:07:05,VALID,1008.45,VALID,0,INVALID,130.972,VALID,0,VALID,23.5771,VALID,100,VALID,0.433594,
2014-11-16, 02:08:05,VALID,1008.44,VALID,0,INVALID,130.85,VALID,0,VALID,23.6179,VALID,100,VALID,0.629687,
2014-11-16, 02:09:05,VALID,1008.41,VALID,0,INVALID,130.728,VALID,0,VALID,23.5966,VALID,100,VALID,0.213281,
2014-11-16, 02:10:05,VALID,1008.42,VALID,0,INVALID,130.683,VALID,0,VALID,23.5966,VALID,100,VALID,0.460156,
2014-11-16, 02:11:05,VALID,1008.39,VALID,0,INVALID,130.69,VALID,0,VALID,23.6179,VALID,100,VALID,0.463281,
2014-11-16, 02:12:05,VALID,1008.41,VALID,0,INVALID,130.644,VALID,0,VALID,23.5771,VALID,100,VALID,0.479297,
2014-11-16, 02:13:05,VALID,1008.39,VALID,0,INVALID,130.622,VALID,0,VALID,23.5789,VALID,100,VALID,0.553516,
2014-11-16, 02:14:05,VALID,1008.4,VALID,0,INVALID,130.522,VALID,0,VALID,23.5576,VALID,100,VALID,0.4875,
2014-11-16, 02:15:05,VALID,1008.39,VALID,0,INVALID,130.408,VALID,0,VALID,23.5576,VALID,100,VALID,0.285937,
2014-11-16, 02:16:05,VALID,1008.39,VALID,0,INVALID,130.324,VALID,0,VALID,23.5771,VALID,100,VALID,0.361719,
2014-11-16, 02:17:05,VALID,1008.37,VALID,0,INVALID,130.225,VALID,0,VALID,23.5771,VALID,100,VALID,0.483594,
2014-11-16, 02:18:05,VALID,1008.36,VALID,0,INVALID,130.179,VALID,0,VALID,23.5576,VALID,100,VALID,0.478906,
2014-11-16, 02:19:05,VALID,1008.34,VALID,0,INVALID,130.172,VALID,0,VALID,23.5576,VALID,100,VALID,0.473437,
2014-11-16, 02:20:05,VALID,1008.3,VALID,0,INVALID,130.141,VALID,0,VALID,23.5576,VALID,100,VALID,0.339063,
2014-11-16, 02:21:05,VALID,1008.28,VALID,0,INVALID,130.126,VALID,0,VALID,23.5381,VALID,100,VALID,0.411328,
2014-11-16, 02:22:05,VALID,1008.25,VALID,0,INVALID,130.065,VALID,0,VALID,23.5576,VALID,100,VALID,0.480859,
2014-11-16, 02:23:05,VALID,1008.24,VALID,0,INVALID,129.989,VALID,0,VALID,23.5594,VALID,100,VALID,0.7,
2014-11-16, 02:24:05,VALID,1008.22,VALID,0,INVALID,129.943,VALID,0,VALID,23.5186,VALID,100,VALID,0.387891,
2014-11-16, 02:25:05,VALID,1008.18,VALID,0,INVALID,129.92,VALID,0,VALID,23.5186,VALID,100,VALID,0.245312,
2014-11-16, 02:26:05,VALID,1008.18,VALID,0,INVALID,129.95,VALID,0,VALID,23.5186,VALID,100,VALID,0.10625,
2014-11-16, 02:27:05,VALID,1008.15,VALID,0,INVALID,129.92,VALID,0,VALID,23.4992,VALID,100,VALID,0.513672,
2014-11-16, 02:28:05,VALID,1008.17,VALID,0,INVALID,129.905,VALID,0,VALID,23.4992,VALID,100,VALID,0.145703,
2014-11-16, 02:29:05,VALID,1008.16,VALID,0,INVALID,129.882,VALID,0,VALID,23.4992,VALID,100,VALID,0.401172,
2014-11-16, 02:30:05,VALID,1008.16,VALID,0,INVALID,129.783,VALID,0,VALID,23.4992,VALID,100,VALID,0.394141,
2014-11-16, 02:31:05,VALID,1008.17,VALID,0,INVALID,129.722,VALID,0,VALID,23.5204,VALID,100,VALID,0.0601562,
2014-11-16, 02:32:05,VALID,1008.18,VALID,0,INVALID,129.706,VALID,0,VALID,23.4797,VALID,100,VALID,0.286328,
2014-11-16, 02:33:05,VALID,1008.21,VALID,0,INVALID,129.638,VALID,0,VALID,23.4797,VALID,100,VALID,0.357031,
2014-11-16, 02:34:05,VALID,1008.18,VALID,0,INVALID,129.63,VALID,0,VALID,23.4797,VALID,100,VALID,0.673437,
2014-11-16, 02:35:05,VALID,1008.16,VALID,0,INVALID,129.523,VALID,0,VALID,23.4797,VALID,100,VALID,0.414063,
2014-11-16, 02:36:05,VALID,1008.15,VALID,0,INVALID,129.523,VALID,0,VALID,23.4602,VALID,100,VALID,1.08047,
2014-11-16, 02:37:05,VALID,1008.13,VALID,0,INVALID,129.554,VALID,0,VALID,23.4389,VALID,100,VALID,0.971484,
2014-11-16, 02:38:05,VALID,1008.11,VALID,0,INVALID,129.485,VALID,0,VALID,23.4602,VALID,100,VALID,0.627734,
2014-11-16, 02:39:05,VALID,1008.1,VALID,0,INVALID,129.409,VALID,0,VALID,23.4407,VALID,100,VALID,0.408984,
2014-11-16, 02:40:05,VALID,1008.11,VALID,0,INVALID,129.34,VALID,0,VALID,23.4407,VALID,100,VALID,0.529297,
2014-11-16, 02:41:05,VALID,1008.08,VALID,0,INVALID,129.333,VALID,0,VALID,23.4212,VALID,100,VALID,0.621875,
2014-11-16, 02:42:05,VALID,1008.06,VALID,0,INVALID,129.295,VALID,0.112112,VALID,23.4212,VALID,100,VALID,0.638281,
2014-11-16, 02:43:05,VALID,1008.05,VALID,0,INVALID,129.249,VALID,0,VALID,23.4212,VALID,100,VALID,0.175781,
2014-11-16, 02:44:05,VALID,1008.03,VALID,0,INVALID,129.196,VALID,0,VALID,23.4017,VALID,100,VALID,0.280859,
2014-11-16, 02:45:05,VALID,1008.02,VALID,0,INVALID,129.218,VALID,0,VALID,23.4017,VALID,100,VALID,0.377344,
2014-11-16, 02:46:05,VALID,1008.01,VALID,0,INVALID,129.188,VALID,0,VALID,23.3823,VALID,100,VALID,0.281641,
2014-11-16, 02:47:05,VALID,1007.99,VALID,0,INVALID,129.112,VALID,0,VALID,23.3823,VALID,100,VALID,0.325,
2014-11-16, 02:48:05,VALID,1008.02,VALID,0,INVALID,129.074,VALID,0,VALID,23.3823,VALID,100,VALID,0.216016,
2014-11-16, 02:49:05,VALID,1008,VALID,0,INVALID,129.005,VALID,0,VALID,23.3823,VALID,100,VALID,0.166797,
2014-11-16, 02:50:05,VALID,1008,VALID,0,INVALID,128.967,VALID,0,VALID,23.3628,VALID,100,VALID,0.137891,
2014-11-16, 02:51:05,VALID,1007.98,VALID,0,INVALID,128.974,VALID,0,VALID,23.3628,VALID,100,VALID,0.463281,
2014-11-16, 02:52:05,VALID,1007.97,VALID,0,INVALID,128.959,VALID,0,VALID,23.3433,VALID,100,VALID,0.388281,
2014-11-16, 02:53:05,VALID,1007.96,VALID,0,INVALID,128.921,VALID,0,VALID,23.3433,VALID,100,VALID,0.275391,
2014-11-16, 02:54:05,VALID,1007.93,VALID,0,INVALID,128.89,VALID,0,VALID,23.3238,VALID,100,VALID,0.262109,
2014-11-16, 02:55:05,VALID,1007.93,VALID,0,INVALID,128.845,VALID,0,VALID,23.3433,VALID,100,VALID,0.196875,
2014-11-16, 02:56:05,VALID,1007.91,VALID,0,INVALID,128.807,VALID,0,VALID,23.3238,VALID,100,VALID,0.545313,
2014-11-16, 02:57:05,VALID,1007.92,VALID,0,INVALID,128.7,VALID,0,VALID,23.3238,VALID,100,VALID,0.285937,
2014-11-16, 02:58:05,VALID,1007.89,VALID,0,INVALID,128.692,VALID,0,VALID,23.3238,VALID,100,VALID,0.361328,
2014-11-16, 02:59:05,VALID,1007.88,VALID,0,INVALID,128.631,VALID,0,VALID,23.3043,VALID,100,VALID,0.377344,
2014-11-16, 03:00:05,VALID,1007.86,VALID,0,INVALID,128.631,VALID,0,VALID,23.3043,VALID,100,VALID,0.628516,
2014-11-16, 03:01:05,VALID,1007.86,VALID,0,INVALID,128.631,VALID,0,VALID,23.2848,VALID,100,VALID,0.591797,
2014-11-16, 03:02:05,VALID,1007.83,VALID,0,INVALID,128.57,VALID,0,VALID,23.2848,VALID,100,VALID,0.494922,
2014-11-16, 03:03:05,VALID,1007.81,VALID,0,INVALID,128.486,VALID,0,VALID,23.2848,VALID,100,VALID,0.696094,
2014-11-16, 03:04:05,VALID,1007.81,VALID,0,INVALID,128.463,VALID,0,VALID,23.2654,VALID,100,VALID,0.848437,
2014-11-16, 03:05:05,VALID,1007.79,VALID,0,INVALID,128.433,VALID,0,VALID,23.2654,VALID,100,VALID,0.686719,
2014-11-16, 03:06:05,VALID,1007.8,VALID,0,INVALID,128.311,VALID,0,VALID,23.2654,VALID,100,VALID,0.594141,
2014-11-16, 03:07:05,VALID,1007.81,VALID,0,INVALID,128.319,VALID,0,VALID,23.2654,VALID,100,VALID,0.390234,
2014-11-16, 03:08:05,VALID,1007.77,VALID,0,INVALID,128.235,VALID,0,VALID,23.2459,VALID,100,VALID,0.504297,
2014-11-16, 03:09:05,VALID,1007.76,VALID,0,INVALID,128.227,VALID,0,VALID,23.2459,VALID,100,VALID,0.430078,
2014-11-16, 03:10:05,VALID,1007.77,VALID,0,INVALID,128.113,VALID,0,VALID,23.2459,VALID,100,VALID,0.33125,
2014-11-16, 03:11:05,VALID,1007.79,VALID,0,INVALID,128.067,VALID,0,VALID,23.2264,VALID,100,VALID,0.276953,
2014-11-16, 03:12:05,VALID,1007.77,VALID,0,INVALID,128.036,VALID,0,VALID,23.2264,VALID,100,VALID,0.314453,
2014-11-16, 03:13:05,VALID,1007.78,VALID,0,INVALID,127.991,VALID,0,VALID,23.2459,VALID,100,VALID,0.110156,
2014-11-16, 03:14:05,VALID,1007.81,VALID,0,INVALID,127.968,VALID,0,VALID,23.2264,VALID,100,VALID,0,
2014-11-16, 03:15:05,VALID,1007.82,VALID,0,INVALID,127.899,VALID,0,VALID,23.2264,VALID,100,VALID,0,
2014-11-16, 03:16:05,VALID,1007.82,VALID,0,INVALID,127.953,VALID,0,VALID,23.2264,VALID,100,VALID,0,
2014-11-16, 03:17:05,VALID,1007.84,VALID,0,INVALID,127.93,VALID,0,VALID,23.2069,VALID,100,VALID,0,
2014-11-16, 03:18:05,VALID,1007.86,VALID,0,INVALID,127.884,VALID,0,VALID,23.2069,VALID,100,VALID,0,
2014-11-16, 03:19:05,VALID,1007.84,VALID,0,INVALID,127.907,VALID,0,VALID,23.2282,VALID,100,VALID,0.307422,
2014-11-16, 03:20:05,VALID,1007.86,VALID,0,INVALID,127.846,VALID,0,VALID,23.1874,VALID,100,VALID,0.128516,
2014-11-16, 03:21:05,VALID,1007.87,VALID,0,INVALID,127.815,VALID,0,VALID,23.1874,VALID,100,VALID,0.0121094,
2014-11-16, 03:22:05,VALID,1007.87,VALID,0,INVALID,127.777,VALID,0,VALID,23.1874,VALID,100,VALID,0,
2014-11-16, 03:23:05,VALID,1007.88,VALID,0,INVALID,127.655,VALID,0,VALID,23.2069,VALID,100,VALID,0.189844,
2014-11-16, 03:24:05,VALID,1007.85,VALID,0,INVALID,127.556,VALID,0,VALID,23.2069,VALID,100,VALID,0.617578,
2014-11-16, 03:25:05,VALID,1007.86,VALID,0,INVALID,127.518,VALID,0,VALID,23.1874,VALID,100,VALID,0.552344,
2014-11-16, 03:26:05,VALID,1007.87,VALID,0,INVALID,127.525,VALID,0,VALID,23.1662,VALID,100,VALID,0.976953,
2014-11-16, 03:27:05,VALID,1007.86,VALID,0,INVALID,127.434,VALID,0,VALID,23.1874,VALID,100,VALID,0.855469,
2014-11-16, 03:28:05,VALID,1007.84,VALID,0,INVALID,127.419,VALID,0,VALID,23.1679,VALID,100,VALID,0.59375,
2014-11-16, 03:29:04,VALID,1007.89,VALID,0,INVALID,127.403,VALID,0,VALID,23.1679,VALID,100,VALID,0.531641,
2014-11-16, 03:30:04,VALID,1007.85,VALID,0,INVALID,127.327,VALID,0,VALID,23.1679,VALID,100,VALID,0.582812,
2014-11-16, 03:31:04,VALID,1007.84,VALID,0,INVALID,127.312,VALID,0,VALID,23.1467,VALID,100,VALID,0.286719,
2014-11-16, 03:32:04,VALID,1007.84,VALID,0,INVALID,127.259,VALID,0,VALID,23.1679,VALID,100,VALID,0.269531,
2014-11-16, 03:33:04,VALID,1007.87,VALID,0,INVALID,127.182,VALID,0,VALID,23.1679,VALID,100,VALID,0.748047,
2014-11-16, 03:34:04,VALID,1007.84,VALID,0,INVALID,127.175,VALID,0,VALID,23.1467,VALID,100,VALID,0.641406,
2014-11-16, 03:35:04,VALID,1007.87,VALID,0,INVALID,127.106,VALID,0,VALID,23.1272,VALID,100,VALID,0.681641,
2014-11-16, 03:36:04,VALID,1007.89,VALID,0,INVALID,127.045,VALID,0,VALID,23.1485,VALID,100,VALID,0.842188,
2014-11-16, 03:37:04,VALID,1007.91,VALID,0,INVALID,126.946,VALID,0,VALID,23.1485,VALID,100,VALID,0.723047,
2014-11-16, 03:38:04,VALID,1007.93,VALID,0,INVALID,126.908,VALID,0,VALID,23.1485,VALID,100,VALID,0.548828,
2014-11-16, 03:39:04,VALID,1007.96,VALID,0,INVALID,126.877,VALID,0,VALID,23.1679,VALID,100,VALID,0.482422,
2014-11-16, 03:40:04,VALID,1007.97,VALID,0,INVALID,126.778,VALID,0.112112,VALID,23.1679,VALID,100,VALID,0.381641,